This demonstration page uses our WeatherBlox Daily Observations layout. Learn more.

Left ArrowRight Arrow

34.74481, -87.66753

Hourly Observations for February 26, 2018

Temp ( °F °C ) Dew Point ( °F °C ) Humidity (%) Winds ( mph kmh ) Pressure ( in mb ) Visibility ( mi km ) Precip ( " mm )
12:03 am 00:03 Cloudy with Light Rain 54 12.2 51 10.6 90 90 SSE 7 11 30.09 1019 10 16 0.00 0.03
12:15 am 00:15 Cloudy with Light Rain 54 12.2 51 10.6 90 90 WNW 7 11 30.12 1020 10 16 0.00 0.03
12:22 am 00:22 Cloudy with Light Rain 54 12.2 51 10.6 90 90 Calm 30.12 1020 9 14 0.01 0.25
12:53 am 00:53 Cloudy with Light Rain 55 12.8 52 11.1 90 90 E 3 6 30.10 1019 10 16 0.02 0.51
1:53 am 01:53 Cloudy 54 12.2 51 10.6 90 90 N 8 13 30.11 1020 9 14 0.01 0.25
2:53 am 02:53 Cloudy with Light Rain 53 11.7 50 10 89 89 NNW 5 7 30.11 1020 4 6 0.02 0.51
3:08 am 03:08 Cloudy with Light Rain 53 11.7 50 10 89 89 NW 6 9 30.12 1020 3 4 0.01 0.25
3:15 am 03:15 Cloudy with Light Rain 53 11.7 50 10 89 89 N 8 13 30.12 1020 3 5 0.01 0.25
3:53 am 03:53 Cloudy with Mist and Fog 52 11.1 49 9.4 89 89 NNW 8 13 30.13 1020 5 8 0.02 0.51
4:18 am 04:18 Cloudy 52 11.1 49 9.4 89 89 N 6 9 30.15 1021 10 16 0.00 0.00
4:26 am 04:26 Cloudy 52 11.1 49 9.4 89 89 N 7 11 30.15 1021 9 14 0.00 0.00
4:53 am 04:53 Cloudy 52 11.1 49 9.4 89 89 N 6 9 30.14 1021 10 16 0.00 0.00
5:08 am 05:08 Cloudy 52 11.1 48 8.9 86 86 N 6 9 30.15 1021 10 16 0.00 0.00
5:53 am 05:53 Cloudy 52 11.1 48 8.9 86 86 NE 5 7 30.16 1021 10 16 0.00 0.00
6:02 am 06:02 Cloudy 52 11.1 48 8.9 86 86 ENE 6 9 30.18 1022 10 16 0.00 0.00
6:53 am 06:53 Sunny 50 10 47 8.3 89 89 Calm 30.19 1022 10 16 0.00 0.00
7:22 am 07:22 Mostly Cloudy 53 11.7 48 8.9 83 83 Calm 30.21 1023 10 16 0.00 0.00
7:53 am 07:53 Cloudy 53 11.7 49 9.4 86 86 NNW 5 7 30.22 1024 10 16 0.00 0.00
8:53 am 08:53 Cloudy 53 11.7 48 8.9 83 83 NNW 8 13 30.26 1025 10 16 0.00 0.00
9:53 am 09:53 Cloudy 54 12.2 47 8.3 77 77 NNE 7 11 30.28 1025 10 16 0.00 0.00
10:51 am 10:51 Mostly Cloudy 55 13 48 9 77 77 VRB 3 6 30.27 1025 10 16 0.00 0.00
10:53 am 10:53 Mostly Cloudy 57 13.9 47 8.3 69 69 NE 6 9 30.28 1025 10 16 0.00 0.00
11:00 am 11:00 Partly Cloudy 57 13.9 48 8.9 72 72 E 6 9 30.27 1025 10 16 0.00 0.00
11:53 am 11:53 Mostly Sunny 60 15.6 46 7.8 60 60 ENE 6 9 30.27 1025 10 16 0.00 0.00
12:53 pm 12:53 Sunny 62 16.7 44 6.7 52 52 E 5 7 30.25 1025 10 16 0.00 0.00
1:53 pm 13:53 Sunny 64 17.8 37 2.8 37 37 NNE 6 9 30.24 1024 10 16 0.00 0.00
2:53 pm 14:53 Sunny 65 18.3 36 2.2 34 34 NNE 9 15 30.24 1024 10 16 0.00 0.00
3:53 pm 15:53 Sunny 64 17.8 36 2.2 35 35 ENE 7 11 30.24 1024 10 16 0.00 0.00
4:53 pm 16:53 Sunny 64 17.8 35 1.7 34 34 ENE 7 11 30.25 1024 10 16 0.00 0.00
5:53 pm 17:53 Clear 59 15 37 2.8 44 44 ENE 3 6 30.26 1025 10 16 0.00 0.00
6:53 pm 18:53 Clear 56 13.3 38 3.3 51 51 E 3 6 30.28 1026 10 16 0.00 0.00
7:53 pm 19:53 Clear 51 10.6 43 6.1 74 74 ENE 5 7 30.29 1026 10 16 0.00 0.00
8:53 pm 20:53 Clear 50 10 41 5 71 71 Calm 30.31 1026 10 16 0.00 0.00
9:53 pm 21:53 Clear 48 8.9 42 5.6 80 80 Calm 30.32 1027 10 16 0.00 0.00
10:53 pm 22:53 Clear 47 8.3 42 5.6 83 83 Calm 30.32 1027 10 16 0.00 0.00
11:53 pm 23:53 Clear 47 8.3 41 5 80 80 Calm 30.32 1027 10 16 0.00 0.00

Powered by AerisWeather